Regional Weather Roundup
Issued by NWS

Home | Current Version | Previous Version | Graphics & Text | Print | Product List | Glossary On
Versions: 1 2 3 4 5 6 7 8 9 10 11 12 13 14 15 16 17 18 19 20 21 22 23 24 25 26 27 28 29 30 31 32 33 34 35 36 37 38 39 40 41 42 43 44 45 46 47 48 49 50
000
ASUS45 KBOU 301807
RWRCO

WEATHER ROUNDUP FOR COLORADO
NATIONAL WEATHER SERVICE DENVER/BOULDER CO
1200 PM MDT TUE SEP 30 2014

NOTE: "FAIR" INDICATES FEW OR NO CLOUDS BELOW 12000 FEET WITH NO
SIGNIFICANT WEATHER AND/OR OBSTRUCTIONS TO VISIBILITY.

COZ001>005-013-030-031-301900-
...NORTHWEST COLORADO...

CITY           SKY/WX    TMP DP  RH WIND       PRES   REMARKS
CRAIG          CLOUDY    55  38  52 W17       29.98S
HAYDEN         CLOUDY    52  36  54 W12G17    29.97F
MEEKER         LGT RAIN  52  40  63 CALM      29.99F
MOUNT WERNER   NOT AVBL
STEAMBOAT SPGS CLOUDY    48  37  66 SW5       29.98F
WALDEN         PTSUNNY   43  32  65 S18       29.99F
$$

COZ006>008-011-301900-
...WEST CENTRAL VALLEYS...

CITY           SKY/WX    TMP DP  RH WIND       PRES   REMARKS
GRAND JUNCTION PTSUNNY   57  43  59 CALM      29.99F
MONTROSE       CLOUDY    55  44  66 W3        30.04F
EAGLE          CLOUDY    46  43  87 W6        30.06S
RIFLE          PTSUNNY   51  44  77 E3        30.02F
DELTA          CLOUDY    57  46  67 CALM      30.02F HAZE
NUCLA          CLOUDY    59  39  47 SW6       30.07F
$$

COZ017>023-064>068-301900-
...SOUTHWEST COLORADO...

CITY           SKY/WX    TMP DP  RH WIND       PRES   REMARKS
DURANGO        MOSUNNY   55  40  56 S9        30.07F
CORTEZ         MOSUNNY   60  39  45 SW6       30.05F
PAGOSA SPRINGS PTSUNNY   51  36  56 S9        30.10F
TELLURIDE      CLOUDY   N/A N/A N/A W8        30.14S
WOLF CREEK PAS FOG       30  30 100 SW10      30.22S VSB 1/2 WCI  21
$$

COZ009-010-012-014-032>034-037-058>063-301900-
...CENTRAL COLORADO...

CITY           SKY/WX    TMP DP  RH WIND       PRES   REMARKS
ASPEN          CLOUDY    45  36  70 N6        30.05F
BUENA VISTA    MOSUNNY   55  26  32 SW23G31   30.02S
COPPER MTN     CLOUDY    32  28  86 W14G20    30.16S HAZE    WCI  22
BERTHOUD PASS  CLOUDY    23  21  93 NW30G39   30.13R WCI   5
COTTONWOOD PAS CLOUDY    46  27  46 NW10G23   30.09S
GUNNISON       CLOUDY    46  34  61 N7        30.10S
KREMMLING      CLOUDY    50  36  57 SW14G22   30.03F
LEADVILLE      CLOUDY    39  26  59 NW15G23   30.09S
SALIDA         MOSUNNY   58  30  34 SW20G29   30.09S
SUNLIGHT       CLOUDY    36  36 100 CALM      30.16R FOG
WILKERSON PASS NOT AVBL
$$

COZ069>075-301900-
...SAN LUIS VALLEY/SANGRE DE CRISTO MOUNTAINS...

CITY           SKY/WX    TMP DP  RH WIND       PRES   REMARKS
ALAMOSA        SUNNY     54  28  36 VRB5      30.05F
LA VETA PASS   SUNNY     45  28  53 S12G25    30.10S
SAGUACHE       MOSUNNY   54  34  47 N12       30.06F
$$

COZ035-036-038>040-301900-
...NORTHERN COLORADO FRONT RANGE...

CITY           SKY/WX    TMP DP  RH WIND       PRES   REMARKS
DENVER INTL AP MOSUNNY   65  32  29 N6        29.85F
DMNS CITY PARK   N/A     64  30  27 W16G23    29.85S
AURORA         MOSUNNY   64  31  28 W15G21    29.87F
FRONT RANGE AP NOT AVBL
ERIE MUNI ARPT SUNNY     66  33  28 CALM      29.85S
BOULDER MUN AP SUNNY     64  34  32 E6        29.85S
CENTENNIAL     MOSUNNY   63  30  28 NW3       29.88F
BROOMFIELD     MOSUNNY   64  30  27 VRB7      29.88S
FORT COLLINS   MOSUNNY   64  39  39 S6        29.85F
LONGMONT       MOSUNNY   71  31  23 W15G26    29.84F
$$

COZ041-046-047-076>085-087-088-301900-
...PIKES PEAK/PALMER DIVIDE AND SOUTHERN FOOTHILLS...

CITY           SKY/WX    TMP DP  RH WIND       PRES   REMARKS
COLO. SPRINGS  MOSUNNY   62  28  27 VRB3      29.91F
A. F. ACADEMY  SUNNY     64  26  23 W13       29.91F
ELLICOTT       NOT AVBL
FALCON         SUNNY     62  28  27 SW12      29.94F
FORT CARSON    SUNNY     63  33  32 N9        29.89F
LIMON          SUNNY     66  32  28 VRB7      29.87F
MONUMENT HILL  SUNNY     57  28  33 W10G18    29.93F
TRINIDAD       SUNNY     68  29  23 NW8       29.90F
$$

COZ042>045-048>051-090-091-301900-
...NORTHEAST COLORADO...

CITY           SKY/WX    TMP DP  RH WIND       PRES   REMARKS
GREELEY ARPT   SUNNY     64  37  36 E6        29.85F
AKRON          SUNNY     66  40  38 NW8       29.84S
BURLINGTON     SUNNY     67  41  38 S9        29.84F
WRAY           SUNNY     73  41  31 W8        29.80F
STERLING       SUNNY     72  41  33 W9        29.80F
HOLYOKE        SUNNY     73  45  35 W9        29.80F
FORT MORGAN    SUNNY     67  36  31 W9        29.85R
$$

COZ086-089-092>099-301900-
...SOUTHEAST COLORADO...

CITY           SKY/WX    TMP DP  RH WIND       PRES   REMARKS
PUEBLO         SUNNY     70  32  24 W18G28    29.84F
LA JUNTA       SUNNY     72  37  28 W12G18    29.84F
LAMAR          SUNNY     70  42  36 VRB3      29.82F
SPRINGFIELD      N/A     72  34  24 VRB5      29.85F
$$



USA.gov is the U.S. government's official web portal to all federal, state and local government web resources and services.